Regional Weather Roundup
Issued by NWS

Home | Current Version | Previous Version | Graphics & Text | Print | Product List | Glossary Off
Versions: 1 2 3 4 5 6 7 8 9 10 11 12 13 14 15 16 17 18 19 20 21 22 23 24 25 26 27 28 29 30 31 32 33 34 35 36 37 38 39 40 41 42 43 44 45 46 47 48 49 50

000
ASUS45 KPSR 281910
RWRAZ

ARIZONA REGIONAL HOURLY WEATHER ROUNDUP
NATIONAL WEATHER SERVICE PHOENIX AZ
1200 PM MST WED JAN 28 2015

NOTE: FAIR INDICATES FEW OR NO CLOUDS BELOW 12,000 FEET WITH NO
SIGNIFICANT WEATHER AND/OR OBSTRUCTIONS TO VISIBILITY.

AZZ001>003-036-282000-
NORTHWEST ARIZONA

CITY           SKY/WX    TMP DP  RH WIND       PRES   REMARKS
BULLHEAD CITY  PTSUNNY   64  50  59 N18G26    30.21F
KINGMAN        SUNNY     56  46  69 N10       30.24F
$$

AZZ004>008-015-016-018-282000-
NORTH CENTRAL ARIZONA

CITY           SKY/WX    TMP DP  RH WIND       PRES   REMARKS
GRAND CANYON   PTSUNNY   48  24  39 CALM      30.30F
PRESCOTT       MOSUNNY   53  39  59 N3        30.27F
FLAGSTAFF      MOSUNNY   48  29  47 CALM      30.30F
PAYSON         MOSUNNY   59  41  51 VRB7      30.27F
$$

AZZ009>014-017-282000-
NORTHEAST ARIZONA

CITY           SKY/WX    TMP DP  RH WIND       PRES   REMARKS
WINSLOW        SUNNY     52  38  58 CALM      30.29F
SAINT JOHNS    SUNNY     55  39  54 VRB3      30.25F
WINDOW ROCK    MOSUNNY   52  28  39 SW7       30.29F
SHOW LOW       SUNNY     54  27  35 SW9       30.30F
$$

AZZ023-282000-
GREATER PHOENIX AREA

CITY           SKY/WX    TMP DP  RH WIND       PRES   REMARKS
PHOENIX        PTSUNNY   70  48  45 E6        30.14F
BUCKEYE          N/A     64  50  59 CALM      30.16F
GLENDALE       PTSUNNY   66  52  59 VRB3      30.16F
LUKE AFB       NOT AVBL
DEER VALLEY    SUNNY     66  49  54 VRB3      30.14F
SCOTTSDALE     SUNNY     66  49  54 CALM      30.16F
MESA-FALCON    PTSUNNY   66  46  48 N10       30.14F
MESA-GATEWAY   MOSUNNY   64  54  68 CALM      30.16F
CHANDLER       PTSUNNY   64  54  68 NE5       30.15F
$$

AZZ027-028-282000-
SOUTHWEST MARICOPA COUNTY AND PINAL COUNTY

CITY           SKY/WX    TMP DP  RH WIND       PRES   REMARKS
CASA GRANDE    SUNNY     64  52  63 CALM      30.15F
GILA BEND      MOCLDY    66  53  64 N5        30.15F
$$

AZZ503-504-507>509-282000-
SOUTHEAST ARIZONA

CITY           SKY/WX    TMP DP  RH WIND       PRES   REMARKS
TUCSON         SUNNY     68  49  50 CALM      30.18F
DAVIS-MONTHAN  SUNNY     66  50  56 W2        30.16F
NOGALES        MOSUNNY   67  45  45 NW3       30.17F
SIERRA VISTA   PTSUNNY   66  43  42 SE7       30.22F
DOUGLAS        SUNNY     66  40  38 CALM      30.21F
SAFFORD        MOSUNNY   65  39  38 CALM      30.18F
$$

AZZ020-021-025-026-031-282000-
SOUTHWEST ARIZONA

CITY           SKY/WX    TMP DP  RH WIND       PRES   REMARKS
YUMA           PTSUNNY   71  54  54 N9        30.17S
$$

CAZ031-033-041-043-047-048-061-282000-
SOUTHERN CALIFORNIA

CITY           SKY/WX    TMP DP  RH WIND       PRES   REMARKS
DOWNTOWN L.A.  PTSUNNY   69  44  40 CALM      30.12F
L.A. AIRPORT   PTSUNNY   68  48  48 NE6       30.13F
SAN DIEGO      CLOUDY    70  45  40 CALM      30.12F
BURBANK        PTSUNNY   70  45  40 W3        30.13F
ONTARIO        CLOUDY    67  44  43 CALM      30.14F
RIVERSIDE      PTSUNNY   70  44  39 NE8       30.15F
PALM SPRINGS   MOSUNNY   70  44  39 CALM      30.20F
EL CENTRO NAS  CLOUDY    66  54  65 VRB6      30.19S
IMPERIAL       CLOUDY    66  54  65 NW5       30.19R
BLYTHE         SUNNY     63  54  72 CALM      30.19F
NEEDLES        MOSUNNY   64  50  60 NE6       30.22F
$$

NVZ020-UTZ003-282000-
SOUTHERN NEVADA-UTAH

CITY           SKY/WX    TMP DP  RH WIND       PRES   REMARKS
LAS VEGAS      PTSUNNY   59  44  57 CALM      30.22F
SALT LAKE CITY PTSUNNY   48  38  68 N8        30.31S
$$

NMZ009-TXZ055-282000-
NEW MEXICO-WEST TEXAS

CITY           SKY/WX    TMP DP  RH WIND       PRES   REMARKS
ALBUQUERQUE    MOSUNNY   58  33  39 NW8       30.25F
EL PASO        MOSUNNY   64  42  44 CALM      30.20F
$$


........................KEY........................
SKY/WX - SKY CONDITION/WEATHER
TMP    - TEMPERATURE IN FAHRENHEIT
DP     - DEW POINT IN FAHRENHEIT
RH     - RELATIVE HUMIDITY IN PERCENT
WIND   - DIRECTION AND SPEED IN MILES PER HOUR (MPH)
VRB    - VARIABLE WIND DIRECTION
PRES   - MEAN SEA LEVEL PRESSURE IN INCHES OF MERCURY
         F - FALLING PRESSURE   R - RISING PRESSURE
         S - STEADY PRESSURE
VSB    - VISIBILITY IN MILES
HX     - HEAT INDEX IN FAHRENHEIT
WCI    - WIND CHILL INDEX IN FAHRENHEIT
TC     - TEMPERATURE IN CELSIUS WHICH IS ALSO KNOWN AS
         TEMPERATURE IN CENTIGRADE
AFB    - AIR FORCE BASE
         LUKE AFB IS LUKE AIR FORCE BASE
         DAVIS-MONTHAN IS DAVIS-MONTHAN AIR FORCE BASE
NAS    - NAVAL AIR STATION
         EL CENTRO NAS IS EL CENTRO NAVAL AIR STATION
N/A    - NOT AVAILABLE



USA.gov is the U.S. government's official web portal to all federal, state and local government web resources and services.